Year,Month,Day,Hour,Minute,Value (Times are PST for temperature in C)
2007,09,19,00,00,10.10
2007,09,19,00,01,10.10
2007,09,19,00,02,10.10
2007,09,19,00,03,10.10
2007,09,19,00,04,10.10
2007,09,19,00,05,10.10
2007,09,19,00,06,10.10
2007,09,19,00,07,10.10
2007,09,19,00,08,10.10
2007,09,19,00,09,10.10
2007,09,19,00,10,10.10
2007,09,19,00,11,10.10
2007,09,19,00,12,10.10
2007,09,19,00,13,10.10
2007,09,19,00,14,10.10
2007,09,19,00,15,10.10
2007,09,19,00,16,10.10
2007,09,19,00,17,10.10
2007,09,19,00,18,10.10
2007,09,19,00,19,10.10
2007,09,19,00,20,10.10
2007,09,19,00,21,10.10
2007,09,19,00,22,10.10
2007,09,19,00,23,10.10
2007,09,19,00,24,10.10
2007,09,19,00,25,10.10
2007,09,19,00,26,10.10
2007,09,19,00,27,10.10
2007,09,19,00,28,10.10
2007,09,19,00,29,10.10
2007,09,19,00,30,10.10
2007,09,19,00,31,10.10
2007,09,19,00,32,10.10
2007,09,19,00,33,10.10
2007,09,19,00,34,10.10
2007,09,19,00,35,10.10
2007,09,19,00,36,10.10
2007,09,19,00,37,10.10
2007,09,19,00,38,10.10
2007,09,19,00,39,10.10
2007,09,19,00,40,10.10
2007,09,19,00,41,10.10
2007,09,19,00,42,10.10
2007,09,19,00,43,9.90
2007,09,19,00,44,9.90
2007,09,19,00,45,9.90
2007,09,19,00,46,9.90
2007,09,19,00,47,9.90
2007,09,19,00,48,9.90
2007,09,19,00,49,9.90
2007,09,19,00,50,9.90
2007,09,19,00,51,9.90
2007,09,19,00,52,9.90
2007,09,19,00,53,9.90
2007,09,19,00,54,9.90
2007,09,19,00,55,9.90
2007,09,19,00,56,9.90
2007,09,19,00,57,9.90
2007,09,19,00,58,9.90
2007,09,19,00,59,9.90
2007,09,19,01,00,9.90
2007,09,19,01,01,9.90
2007,09,19,01,02,9.90
2007,09,19,01,03,9.90
2007,09,19,01,04,9.90
2007,09,19,01,05,9.90
2007,09,19,01,06,9.90
2007,09,19,01,07,9.80
2007,09,19,01,08,9.80
2007,09,19,01,09,9.80
2007,09,19,01,10,9.80
2007,09,19,01,11,9.80
2007,09,19,01,12,9.80
2007,09,19,01,13,9.70
2007,09,19,01,14,9.70
2007,09,19,01,15,9.70
2007,09,19,01,16,9.70
2007,09,19,01,17,9.70
2007,09,19,01,18,9.70
2007,09,19,01,19,9.70
2007,09,19,01,20,9.70
2007,09,19,01,21,9.70
2007,09,19,01,22,9.70
2007,09,19,01,23,9.70
2007,09,19,01,24,9.70
2007,09,19,01,25,9.70
2007,09,19,01,26,9.70
2007,09,19,01,27,9.70
2007,09,19,01,28,9.70
2007,09,19,01,29,9.70
2007,09,19,01,30,9.70
2007,09,19,01,31,9.70
2007,09,19,01,32,9.70
2007,09,19,01,33,9.80
2007,09,19,01,34,9.80
2007,09,19,01,35,9.80
2007,09,19,01,36,9.80
2007,09,19,01,37,9.80
2007,09,19,01,38,9.80
2007,09,19,01,39,9.80
2007,09,19,01,40,9.80
2007,09,19,01,41,9.80
2007,09,19,01,42,9.80
2007,09,19,01,43,9.70
2007,09,19,01,44,9.70
2007,09,19,01,45,9.70
2007,09,19,01,46,9.70
2007,09,19,01,47,9.70
2007,09,19,01,48,9.70
2007,09,19,01,49,9.70
2007,09,19,01,50,9.60
2007,09,19,01,51,9.60
2007,09,19,01,52,9.60
2007,09,19,01,53,9.60
2007,09,19,01,54,9.60
2007,09,19,01,55,9.50
2007,09,19,01,56,9.50
2007,09,19,01,57,9.50
2007,09,19,01,58,9.50
2007,09,19,01,59,9.40
2007,09,19,02,00,9.40
2007,09,19,02,01,9.40
2007,09,19,02,02,9.30
2007,09,19,02,03,9.30
2007,09,19,02,04,9.20
2007,09,19,02,05,9.20
2007,09,19,02,06,9.20
2007,09,19,02,07,9.20
2007,09,19,02,08,9.10
2007,09,19,02,09,9.10
2007,09,19,02,10,9.00
2007,09,19,02,11,9.00
2007,09,19,02,12,8.90
2007,09,19,02,13,8.90
2007,09,19,02,14,8.80
2007,09,19,02,15,8.80
2007,09,19,02,16,8.80
2007,09,19,02,17,8.70
2007,09,19,02,18,8.70
2007,09,19,02,19,8.70
2007,09,19,02,20,8.70
2007,09,19,02,21,8.70
2007,09,19,02,22,8.60
2007,09,19,02,23,8.60
2007,09,19,02,24,8.60
2007,09,19,02,25,8.50
2007,09,19,02,26,8.50
2007,09,19,02,27,8.50
2007,09,19,02,28,8.40
2007,09,19,02,29,8.40
2007,09,19,02,30,8.30
2007,09,19,02,31,8.30
2007,09,19,02,32,8.30
2007,09,19,02,33,8.30
2007,09,19,02,34,8.20
2007,09,19,02,35,8.20
2007,09,19,02,36,8.20
2007,09,19,02,37,8.20
2007,09,19,02,38,8.20
2007,09,19,02,39,8.20
2007,09,19,02,40,8.20
2007,09,19,02,41,8.10
2007,09,19,02,42,8.10
2007,09,19,02,43,8.10
2007,09,19,02,44,8.10
2007,09,19,02,45,8.10
2007,09,19,02,46,8.00
2007,09,19,02,47,8.00
2007,09,19,02,48,8.00
2007,09,19,02,49,8.00
2007,09,19,02,50,8.00
2007,09,19,02,51,8.00
2007,09,19,02,52,8.00
2007,09,19,02,53,7.90
2007,09,19,02,54,7.90
2007,09,19,02,55,7.90
2007,09,19,02,56,7.90
2007,09,19,02,57,7.90
2007,09,19,02,58,7.90
2007,09,19,02,59,7.90
2007,09,19,03,00,7.90
2007,09,19,03,01,7.90
2007,09,19,03,02,7.90
2007,09,19,03,03,7.90
2007,09,19,03,04,7.90
2007,09,19,03,05,7.90
2007,09,19,03,06,7.80
2007,09,19,03,07,7.80
2007,09,19,03,08,7.80
2007,09,19,03,09,7.80
2007,09,19,03,10,7.80
2007,09,19,03,11,7.80
2007,09,19,03,12,7.80
2007,09,19,03,13,7.80
2007,09,19,03,14,7.80
2007,09,19,03,15,7.80
2007,09,19,03,16,7.80
2007,09,19,03,17,7.80
2007,09,19,03,18,7.80
2007,09,19,03,19,7.80
2007,09,19,03,20,7.80
2007,09,19,03,21,7.80
2007,09,19,03,22,7.80
2007,09,19,03,23,7.80
2007,09,19,03,24,7.80
2007,09,19,03,25,7.80
2007,09,19,03,26,7.70
2007,09,19,03,27,7.70
2007,09,19,03,28,7.70
2007,09,19,03,29,7.70
2007,09,19,03,30,7.70
2007,09,19,03,31,7.70
2007,09,19,03,32,7.70
2007,09,19,03,33,7.70
2007,09,19,03,34,7.70
2007,09,19,03,35,7.70
2007,09,19,03,36,7.70
2007,09,19,03,37,7.70
2007,09,19,03,38,7.70
2007,09,19,03,39,7.70
2007,09,19,03,40,7.70
2007,09,19,03,41,7.70
2007,09,19,03,42,7.70
2007,09,19,03,43,7.70
2007,09,19,03,44,7.70
2007,09,19,03,45,7.70
2007,09,19,03,46,7.60
2007,09,19,03,47,7.60
2007,09,19,03,48,7.60
2007,09,19,03,49,7.60
2007,09,19,03,50,7.60
2007,09,19,03,51,7.60
2007,09,19,03,52,7.60
2007,09,19,03,53,7.70
2007,09,19,03,54,7.70
2007,09,19,03,55,7.80
2007,09,19,03,56,7.80
2007,09,19,03,57,7.80
2007,09,19,03,58,7.80
2007,09,19,03,59,7.80
2007,09,19,04,00,7.90
2007,09,19,04,01,7.80
2007,09,19,04,02,7.80
2007,09,19,04,03,7.80
2007,09,19,04,04,7.80
2007,09,19,04,05,7.80
2007,09,19,04,06,7.80
2007,09,19,04,07,7.80
2007,09,19,04,08,7.80
2007,09,19,04,09,7.80
2007,09,19,04,10,7.80
2007,09,19,04,11,7.80
2007,09,19,04,12,7.80
2007,09,19,04,13,7.80
2007,09,19,04,14,7.80
2007,09,19,04,15,7.80
2007,09,19,04,16,7.80
2007,09,19,04,17,7.80
2007,09,19,04,18,7.80
2007,09,19,04,19,7.80
2007,09,19,04,20,7.70
2007,09,19,04,21,7.70
2007,09,19,04,22,7.70
2007,09,19,04,23,7.70
2007,09,19,04,24,7.70
2007,09,19,04,25,7.70
2007,09,19,04,26,7.70
2007,09,19,04,27,7.80
2007,09,19,04,28,7.80
2007,09,19,04,29,7.80
2007,09,19,04,30,7.80
2007,09,19,04,31,7.80
2007,09,19,04,32,7.80
2007,09,19,04,33,7.80
2007,09,19,04,34,7.70
2007,09,19,04,35,7.70
2007,09,19,04,36,7.70
2007,09,19,04,37,7.70
2007,09,19,04,38,7.70
2007,09,19,04,39,7.70
2007,09,19,04,40,7.70
2007,09,19,04,41,7.60
2007,09,19,04,42,7.60
2007,09,19,04,43,7.60
2007,09,19,04,44,7.60
2007,09,19,04,45,7.60
2007,09,19,04,46,7.50
2007,09,19,04,47,7.50
2007,09,19,04,48,7.50
2007,09,19,04,49,7.50
2007,09,19,04,50,7.50
2007,09,19,04,51,7.50
2007,09,19,04,52,7.50
2007,09,19,04,53,7.40
2007,09,19,04,54,7.30
2007,09,19,04,55,7.30
2007,09,19,04,56,7.10
2007,09,19,04,57,7.00
2007,09,19,04,58,7.00
2007,09,19,04,59,6.90
2007,09,19,05,00,6.80
2007,09,19,05,01,6.80
2007,09,19,05,02,6.70
2007,09,19,05,03,6.70
2007,09,19,05,04,6.70
2007,09,19,05,05,6.70
2007,09,19,05,06,6.70
2007,09,19,05,07,6.60
2007,09,19,05,08,6.60
2007,09,19,05,09,6.60
2007,09,19,05,10,6.60
2007,09,19,05,11,6.60
2007,09,19,05,12,6.70
2007,09,19,05,13,6.60
2007,09,19,05,14,6.60
2007,09,19,05,15,6.50
2007,09,19,05,16,6.40
2007,09,19,05,17,6.30
2007,09,19,05,18,6.30
2007,09,19,05,19,6.30
2007,09,19,05,20,6.30
2007,09,19,05,21,6.20
2007,09,19,05,22,6.20
2007,09,19,05,23,6.20
2007,09,19,05,24,6.20
2007,09,19,05,25,6.20
2007,09,19,05,26,6.20
2007,09,19,05,27,6.20
2007,09,19,05,28,6.20
2007,09,19,05,29,6.10
2007,09,19,05,30,6.10
2007,09,19,05,31,6.00
2007,09,19,05,32,6.00
2007,09,19,05,33,6.00
2007,09,19,05,34,5.90
2007,09,19,05,35,5.90
2007,09,19,05,36,5.90
2007,09,19,05,37,5.80
2007,09,19,05,38,5.80
2007,09,19,05,39,5.80
2007,09,19,05,40,5.70
2007,09,19,05,41,5.80
2007,09,19,05,42,5.80
2007,09,19,05,43,5.80
2007,09,19,05,44,5.80
2007,09,19,05,45,5.90
2007,09,19,05,46,5.90
2007,09,19,05,47,5.90
2007,09,19,05,48,6.00
2007,09,19,05,49,6.00
2007,09,19,05,50,6.00
2007,09,19,05,51,6.00
2007,09,19,05,52,6.00
2007,09,19,05,53,6.00
2007,09,19,05,54,6.10
2007,09,19,05,55,6.10
2007,09,19,05,56,6.10
2007,09,19,05,57,6.10
2007,09,19,05,58,6.10
2007,09,19,05,59,6.00
2007,09,19,06,00,6.00
2007,09,19,06,01,5.90
2007,09,19,06,02,5.90
2007,09,19,06,03,5.90
2007,09,19,06,04,5.80
2007,09,19,06,05,5.70
2007,09,19,06,06,5.70
2007,09,19,06,07,5.60
2007,09,19,06,08,5.50
2007,09,19,06,09,5.50
2007,09,19,06,10,5.40
2007,09,19,06,11,5.30
2007,09,19,06,12,5.30
2007,09,19,06,13,5.30
2007,09,19,06,14,5.30
2007,09,19,06,15,5.30
2007,09,19,06,16,5.30
2007,09,19,06,17,5.30
2007,09,19,06,18,5.30
2007,09,19,06,19,5.30
2007,09,19,06,20,5.30
2007,09,19,06,21,5.40
2007,09,19,06,22,5.40
2007,09,19,06,23,5.40
2007,09,19,06,24,5.50
2007,09,19,06,25,5.50
2007,09,19,06,26,5.50
2007,09,19,06,27,5.60
2007,09,19,06,28,5.60
2007,09,19,06,29,5.60
2007,09,19,06,30,5.60
2007,09,19,06,31,5.60
2007,09,19,06,32,5.70
2007,09,19,06,33,5.70
2007,09,19,06,34,5.70
2007,09,19,06,35,5.70
2007,09,19,06,36,5.70
2007,09,19,06,37,5.80
2007,09,19,06,38,5.80
2007,09,19,06,39,5.80
2007,09,19,06,40,5.80
2007,09,19,06,41,5.70
2007,09,19,06,42,5.60
2007,09,19,06,43,5.50
2007,09,19,06,44,5.40
2007,09,19,06,45,5.40
2007,09,19,06,46,5.40
2007,09,19,06,47,5.40
2007,09,19,06,48,5.50
2007,09,19,06,49,5.50
2007,09,19,06,50,5.70
2007,09,19,06,51,5.70
2007,09,19,06,52,5.80
2007,09,19,06,53,5.80
2007,09,19,06,54,5.80
2007,09,19,06,55,5.80
2007,09,19,06,56,5.80
2007,09,19,06,57,5.70
2007,09,19,06,58,5.70
2007,09,19,06,59,5.70
2007,09,19,07,00,5.70
2007,09,19,07,01,5.60
2007,09,19,07,02,5.60
2007,09,19,07,03,5.60
2007,09,19,07,04,5.60
2007,09,19,07,05,5.50
2007,09,19,07,06,5.50
2007,09,19,07,07,5.50
2007,09,19,07,08,5.40
2007,09,19,07,09,5.40
2007,09,19,07,10,5.40
2007,09,19,07,11,5.30
2007,09,19,07,12,5.30
2007,09,19,07,13,5.30
2007,09,19,07,14,5.30
2007,09,19,07,15,5.30
2007,09,19,07,16,5.30
2007,09,19,07,17,5.20
2007,09,19,07,18,5.20
2007,09,19,07,19,5.20
2007,09,19,07,20,5.20
2007,09,19,07,21,5.20
2007,09,19,07,22,5.20
2007,09,19,07,23,5.20
2007,09,19,07,24,5.20
2007,09,19,07,25,5.20
2007,09,19,07,26,5.20
2007,09,19,07,27,5.30
2007,09,19,07,28,5.30
2007,09,19,07,29,5.30
2007,09,19,07,30,5.30
2007,09,19,07,31,5.30
2007,09,19,07,32,5.30
2007,09,19,07,33,5.30
2007,09,19,07,34,5.30
2007,09,19,07,35,5.30
2007,09,19,07,36,5.30
2007,09,19,07,37,5.30
2007,09,19,07,38,5.30
2007,09,19,07,39,5.30
2007,09,19,07,40,5.20
2007,09,19,07,41,5.10
2007,09,19,07,42,5.10
2007,09,19,07,43,5.10
2007,09,19,07,44,5.10
2007,09,19,07,45,5.10
2007,09,19,07,46,5.10
2007,09,19,07,47,5.20
2007,09,19,07,48,5.30
2007,09,19,07,49,5.30
2007,09,19,07,50,5.50
2007,09,19,07,51,5.60
2007,09,19,07,52,5.70
2007,09,19,07,53,5.80
2007,09,19,07,54,5.90
2007,09,19,07,55,6.00
2007,09,19,07,56,6.00
2007,09,19,07,57,6.10
2007,09,19,07,58,6.10
2007,09,19,07,59,6.10
2007,09,19,08,00,6.10
2007,09,19,08,01,6.20
2007,09,19,08,02,6.20
2007,09,19,08,03,6.30
2007,09,19,08,04,6.30
2007,09,19,08,05,6.40
2007,09,19,08,06,6.60
2007,09,19,08,07,6.70
2007,09,19,08,08,6.70
2007,09,19,08,09,6.80
2007,09,19,08,10,7.00
2007,09,19,08,11,7.10
2007,09,19,08,12,7.20
2007,09,19,08,13,7.30
2007,09,19,08,14,7.30
2007,09,19,08,15,7.40
2007,09,19,08,16,7.60
2007,09,19,08,17,7.70
2007,09,19,08,18,7.80
2007,09,19,08,19,7.80
2007,09,19,08,20,7.90
2007,09,19,08,21,8.00
2007,09,19,08,22,8.20
2007,09,19,08,23,8.20
2007,09,19,08,24,8.30
2007,09,19,08,25,8.40
2007,09,19,08,26,8.50
2007,09,19,08,27,8.60
2007,09,19,08,28,8.70
2007,09,19,08,29,8.70
2007,09,19,08,30,8.80
2007,09,19,08,31,8.90
2007,09,19,08,32,9.00
2007,09,19,08,33,9.00
2007,09,19,08,34,9.10
2007,09,19,08,35,9.20
2007,09,19,08,36,9.30
2007,09,19,08,37,9.40
2007,09,19,08,38,9.50
2007,09,19,08,39,9.60
2007,09,19,08,40,9.70
2007,09,19,08,41,9.80
2007,09,19,08,42,9.90
2007,09,19,08,43,10.10
2007,09,19,08,44,10.20
2007,09,19,08,45,10.30
2007,09,19,08,46,10.40
2007,09,19,08,47,10.40
2007,09,19,08,48,10.50
2007,09,19,08,49,10.60
2007,09,19,08,50,10.60
2007,09,19,08,51,10.70
2007,09,19,08,52,10.80
2007,09,19,08,53,10.90
2007,09,19,08,54,10.90
2007,09,19,08,55,11.10
2007,09,19,08,56,11.10
2007,09,19,08,57,11.20
2007,09,19,08,58,11.30
2007,09,19,08,59,11.40
2007,09,19,09,00,11.50
2007,09,19,09,01,11.60
2007,09,19,09,02,11.60
2007,09,19,09,03,11.70
2007,09,19,09,04,11.80
2007,09,19,09,05,11.80
2007,09,19,09,06,12.00
2007,09,19,09,07,12.10
2007,09,19,09,08,12.20
2007,09,19,09,09,12.30
2007,09,19,09,10,12.30
2007,09,19,09,11,12.40
2007,09,19,09,12,12.50
2007,09,19,09,13,12.60
2007,09,19,09,14,12.60
2007,09,19,09,15,12.70
2007,09,19,09,16,12.80
2007,09,19,09,17,12.80
2007,09,19,09,18,12.80
2007,09,19,09,19,12.90
2007,09,19,09,20,13.00
2007,09,19,09,21,13.00
2007,09,19,09,22,13.10
2007,09,19,09,23,13.20
2007,09,19,09,24,13.30
2007,09,19,09,25,13.30
2007,09,19,09,26,13.40
2007,09,19,09,27,13.50
2007,09,19,09,28,13.50
2007,09,19,09,29,13.50
2007,09,19,09,30,13.60
2007,09,19,09,31,13.70
2007,09,19,09,32,13.70
2007,09,19,09,33,13.70
2007,09,19,09,34,13.80
2007,09,19,09,35,13.80
2007,09,19,09,36,13.80
2007,09,19,09,37,13.80
2007,09,19,09,38,13.80
2007,09,19,09,39,13.80
2007,09,19,09,40,13.80
2007,09,19,09,41,13.80
2007,09,19,09,42,13.70
2007,09,19,09,43,13.70
2007,09,19,09,44,13.70
2007,09,19,09,45,13.60
2007,09,19,09,46,13.60
2007,09,19,09,47,13.70
2007,09,19,09,48,13.70
2007,09,19,09,49,13.70
2007,09,19,09,50,13.80
2007,09,19,09,51,13.80
2007,09,19,09,52,13.80
2007,09,19,09,53,13.80
2007,09,19,09,54,13.80
2007,09,19,09,55,13.80
2007,09,19,09,56,13.80
2007,09,19,09,57,13.80
2007,09,19,09,58,13.80
2007,09,19,09,59,13.80
2007,09,19,10,00,13.80
2007,09,19,10,01,13.80
2007,09,19,10,02,13.70
2007,09,19,10,03,13.70
2007,09,19,10,04,13.60
2007,09,19,10,05,13.50
2007,09,19,10,06,13.50
2007,09,19,10,07,13.50
2007,09,19,10,08,13.40
2007,09,19,10,09,13.40
2007,09,19,10,10,13.40
2007,09,19,10,11,13.40
2007,09,19,10,12,13.40
2007,09,19,10,13,13.50
2007,09,19,10,14,13.50
2007,09,19,10,15,13.60
2007,09,19,10,16,13.60
2007,09,19,10,17,13.60
2007,09,19,10,18,13.60
2007,09,19,10,19,13.70
2007,09,19,10,20,13.70
2007,09,19,10,21,13.70
2007,09,19,10,22,13.70
2007,09,19,10,23,13.70
2007,09,19,10,24,13.70
2007,09,19,10,25,13.70
2007,09,19,10,26,13.70
2007,09,19,10,27,13.80
2007,09,19,10,28,13.80
2007,09,19,10,29,13.80
2007,09,19,10,30,13.80
2007,09,19,10,31,13.80
2007,09,19,10,32,13.80
2007,09,19,10,33,13.70
2007,09,19,10,34,13.70
2007,09,19,10,35,13.70
2007,09,19,10,36,13.70
2007,09,19,10,37,13.70
2007,09,19,10,38,13.80
2007,09,19,10,39,13.80
2007,09,19,10,40,13.80
2007,09,19,10,41,13.80
2007,09,19,10,42,13.80
2007,09,19,10,43,13.80
2007,09,19,10,44,13.90
2007,09,19,10,45,13.90
2007,09,19,10,46,14.00
2007,09,19,10,47,14.00
2007,09,19,10,48,14.00
2007,09,19,10,49,14.00
2007,09,19,10,50,14.00
2007,09,19,10,51,14.00
2007,09,19,10,52,14.00
2007,09,19,10,53,14.00
2007,09,19,10,54,14.00
2007,09,19,10,55,13.90
2007,09,19,10,56,13.90
2007,09,19,10,57,14.00
2007,09,19,10,58,14.00
2007,09,19,10,59,14.10
2007,09,19,11,00,14.20
2007,09,19,11,01,14.30
2007,09,19,11,02,14.40
2007,09,19,11,03,14.50
2007,09,19,11,04,14.50
2007,09,19,11,05,14.40
2007,09,19,11,06,14.50
2007,09,19,11,07,14.50
2007,09,19,11,08,14.60
2007,09,19,11,09,14.70
2007,09,19,11,10,14.70
2007,09,19,11,11,14.70
2007,09,19,11,12,14.70
2007,09,19,11,13,14.60
2007,09,19,11,14,14.60
2007,09,19,11,15,14.70
2007,09,19,11,16,14.70
2007,09,19,11,17,14.80
2007,09,19,11,18,14.80
2007,09,19,11,19,14.80
2007,09,19,11,20,14.80
2007,09,19,11,21,14.80
2007,09,19,11,22,14.80
2007,09,19,11,23,14.80
2007,09,19,11,24,14.80
2007,09,19,11,25,14.80
2007,09,19,11,26,14.80
2007,09,19,11,27,14.80
2007,09,19,11,28,14.80
2007,09,19,11,29,14.80
2007,09,19,11,30,14.80
2007,09,19,11,31,14.80
2007,09,19,11,32,14.80
2007,09,19,11,33,14.80
2007,09,19,11,34,14.80
2007,09,19,11,35,14.80
2007,09,19,11,36,14.80
2007,09,19,11,37,14.90
2007,09,19,11,38,14.90
2007,09,19,11,39,14.90
2007,09,19,11,40,14.90
2007,09,19,11,41,14.90
2007,09,19,11,42,14.90
2007,09,19,11,43,14.90
2007,09,19,11,44,14.90
2007,09,19,11,45,15.00
2007,09,19,11,46,15.00
2007,09,19,11,47,15.10
2007,09,19,11,48,15.10
2007,09,19,11,49,15.20
2007,09,19,11,50,15.30
2007,09,19,11,51,15.30
2007,09,19,11,52,15.40
2007,09,19,11,53,15.40
2007,09,19,11,54,15.50
2007,09,19,11,55,15.50
2007,09,19,11,56,15.60
2007,09,19,11,57,15.60
2007,09,19,11,58,15.60
2007,09,19,11,59,15.60
2007,09,19,12,00,15.60
2007,09,19,12,01,15.60
2007,09,19,12,02,15.60
2007,09,19,12,03,15.70
2007,09,19,12,04,15.80
2007,09,19,12,05,15.80
2007,09,19,12,06,15.80
2007,09,19,12,07,15.80
2007,09,19,12,08,15.80
2007,09,19,12,09,15.80
2007,09,19,12,10,15.80
2007,09,19,12,11,15.80
2007,09,19,12,12,15.70
2007,09,19,12,13,15.70
2007,09,19,12,14,15.70
2007,09,19,12,15,15.60
2007,09,19,12,16,15.70
2007,09,19,12,17,15.70
2007,09,19,12,18,15.80
2007,09,19,12,19,15.90
2007,09,19,12,20,16.10
2007,09,19,12,21,16.10
2007,09,19,12,22,16.10
2007,09,19,12,23,16.10
2007,09,19,12,24,16.10
2007,09,19,12,25,16.10
2007,09,19,12,26,16.10
2007,09,19,12,27,16.10
2007,09,19,12,28,15.90
2007,09,19,12,29,15.80
2007,09,19,12,30,15.80
2007,09,19,12,31,15.80
2007,09,19,12,32,15.90
2007,09,19,12,33,15.90
2007,09,19,12,34,15.80
2007,09,19,12,35,15.80
2007,09,19,12,36,15.80
2007,09,19,12,37,15.80
2007,09,19,12,38,15.80
2007,09,19,12,39,15.90
2007,09,19,12,40,16.00
2007,09,19,12,41,16.10
2007,09,19,12,42,16.10
2007,09,19,12,43,16.10
2007,09,19,12,44,16.10
2007,09,19,12,45,16.20
2007,09,19,12,46,16.20
2007,09,19,12,47,16.30
2007,09,19,12,48,16.40
2007,09,19,12,49,16.40
2007,09,19,12,50,16.30
2007,09,19,12,51,16.30
2007,09,19,12,52,16.40
2007,09,19,12,53,16.50
2007,09,19,12,54,16.60
2007,09,19,12,55,16.70
2007,09,19,12,56,16.70
2007,09,19,12,57,16.80
2007,09,19,12,58,16.80
2007,09,19,12,59,16.70
2007,09,19,13,00,16.70
2007,09,19,13,01,16.70
2007,09,19,13,02,16.70
2007,09,19,13,03,16.70
2007,09,19,13,04,16.70
2007,09,19,13,05,16.70
2007,09,19,13,06,16.70
2007,09,19,13,07,16.70
2007,09,19,13,08,16.70
2007,09,19,13,09,16.70
2007,09,19,13,10,16.70
2007,09,19,13,11,16.80
2007,09,19,13,12,16.90
2007,09,19,13,13,17.00
2007,09,19,13,14,17.10
2007,09,19,13,15,17.20
2007,09,19,13,16,17.30
2007,09,19,13,17,17.30
2007,09,19,13,18,17.20
2007,09,19,13,19,17.10
2007,09,19,13,20,17.10
2007,09,19,13,21,17.10
2007,09,19,13,22,17.00
2007,09,19,13,23,17.00
2007,09,19,13,24,17.00
2007,09,19,13,25,17.00
2007,09,19,13,26,16.90
2007,09,19,13,27,16.90
2007,09,19,13,28,16.90
2007,09,19,13,29,16.90
2007,09,19,13,30,16.90
2007,09,19,13,31,16.90
2007,09,19,13,32,16.90
2007,09,19,13,33,17.00
2007,09,19,13,34,17.00
2007,09,19,13,35,17.00
2007,09,19,13,36,17.10
2007,09,19,13,37,17.20
2007,09,19,13,38,17.30
2007,09,19,13,39,17.30
2007,09,19,13,40,17.30
2007,09,19,13,41,17.30
2007,09,19,13,42,17.30
2007,09,19,13,43,17.30
2007,09,19,13,44,17.30
2007,09,19,13,45,17.20
2007,09,19,13,46,17.10
2007,09,19,13,47,17.10
2007,09,19,13,48,17.00
2007,09,19,13,49,17.00
2007,09,19,13,50,16.90
2007,09,19,13,51,16.90
2007,09,19,13,52,16.80
2007,09,19,13,53,16.80
2007,09,19,13,54,16.90
2007,09,19,13,55,16.90
2007,09,19,13,56,16.90
2007,09,19,13,57,16.80
2007,09,19,13,58,16.80
2007,09,19,13,59,16.70
2007,09,19,14,00,16.80
2007,09,19,14,01,16.80
2007,09,19,14,02,16.70
2007,09,19,14,03,16.70
2007,09,19,14,04,16.70
2007,09,19,14,05,16.70
2007,09,19,14,06,16.70
2007,09,19,14,07,16.70
2007,09,19,14,08,16.60
2007,09,19,14,09,16.60
2007,09,19,14,10,16.60
2007,09,19,14,11,16.60
2007,09,19,14,12,16.70
2007,09,19,14,13,16.70
2007,09,19,14,14,16.70
2007,09,19,14,15,16.70
2007,09,19,14,16,16.70
2007,09,19,14,17,16.70
2007,09,19,14,18,16.70
2007,09,19,14,19,16.70
2007,09,19,14,20,16.80
2007,09,19,14,21,16.90
2007,09,19,14,22,16.90
2007,09,19,14,23,16.90
2007,09,19,14,24,16.90
2007,09,19,14,25,16.90
2007,09,19,14,26,17.00
2007,09,19,14,27,17.00
2007,09,19,14,28,17.10
2007,09,19,14,29,17.20
2007,09,19,14,30,17.20
2007,09,19,14,31,17.30
2007,09,19,14,32,17.30
2007,09,19,14,33,17.30
2007,09,19,14,34,17.30
2007,09,19,14,35,17.40
2007,09,19,14,36,17.50
2007,09,19,14,37,17.60
2007,09,19,14,38,17.70
2007,09,19,14,39,17.70
2007,09,19,14,40,17.80
2007,09,19,14,41,17.90
2007,09,19,14,42,17.90
2007,09,19,14,43,17.90
2007,09,19,14,44,17.90
2007,09,19,14,45,17.90
2007,09,19,14,46,17.90
2007,09,19,14,47,17.90
2007,09,19,14,48,17.80
2007,09,19,14,49,17.70
2007,09,19,14,50,17.60
2007,09,19,14,51,17.50
2007,09,19,14,52,17.40
2007,09,19,14,53,17.40
2007,09,19,14,54,17.40
2007,09,19,14,55,17.40
2007,09,19,14,56,17.30
2007,09,19,14,57,17.30
2007,09,19,14,58,17.30
2007,09,19,14,59,17.30
2007,09,19,15,00,17.30
2007,09,19,15,01,17.30
2007,09,19,15,02,17.40
2007,09,19,15,03,17.50
2007,09,19,15,04,17.60
2007,09,19,15,05,17.60
2007,09,19,15,06,17.60
2007,09,19,15,07,17.50
2007,09,19,15,08,17.50
2007,09,19,15,09,17.50
2007,09,19,15,10,17.50
2007,09,19,15,11,17.50
2007,09,19,15,12,17.60
2007,09,19,15,13,17.60
2007,09,19,15,14,17.70
2007,09,19,15,15,17.70
2007,09,19,15,16,17.80
2007,09,19,15,17,17.80
2007,09,19,15,18,17.80
2007,09,19,15,19,17.80
2007,09,19,15,20,17.80
2007,09,19,15,21,17.80
2007,09,19,15,22,17.90
2007,09,19,15,23,18.00
2007,09,19,15,24,18.10
2007,09,19,15,25,18.20
2007,09,19,15,26,18.20
2007,09,19,15,27,18.20
2007,09,19,15,28,18.20
2007,09,19,15,29,18.20
2007,09,19,15,30,18.20
2007,09,19,15,31,18.20
2007,09,19,15,32,18.20
2007,09,19,15,33,18.20
2007,09,19,15,34,18.20
2007,09,19,15,35,18.20
2007,09,19,15,36,18.30
2007,09,19,15,37,18.30
2007,09,19,15,38,18.20
2007,09,19,15,39,18.20
2007,09,19,15,40,18.20
2007,09,19,15,41,18.20
2007,09,19,15,42,18.10
2007,09,19,15,43,18.10
2007,09,19,15,44,18.10
2007,09,19,15,45,18.10
2007,09,19,15,46,18.10
2007,09,19,15,47,18.10
2007,09,19,15,48,18.10
2007,09,19,15,49,18.20
2007,09,19,15,50,18.20
2007,09,19,15,51,18.20
2007,09,19,15,52,18.20
2007,09,19,15,53,18.20
2007,09,19,15,54,18.20
2007,09,19,15,55,18.30
2007,09,19,15,56,18.30
2007,09,19,15,57,18.40
2007,09,19,15,58,18.40
2007,09,19,15,59,18.40
2007,09,19,16,00,18.40
2007,09,19,16,01,18.40
2007,09,19,16,02,18.30
2007,09,19,16,03,18.30
2007,09,19,16,04,18.20
2007,09,19,16,05,18.20
2007,09,19,16,06,18.20
2007,09,19,16,07,18.30
2007,09,19,16,08,18.30
2007,09,19,16,09,18.40
2007,09,19,16,10,18.40
2007,09,19,16,11,18.40
2007,09,19,16,12,18.40
2007,09,19,16,13,18.50
2007,09,19,16,14,18.50
2007,09,19,16,15,18.40
2007,09,19,16,16,18.40
2007,09,19,16,17,18.40
2007,09,19,16,18,18.40
2007,09,19,16,19,18.50
2007,09,19,16,20,18.50
2007,09,19,16,21,18.50
2007,09,19,16,22,18.60
2007,09,19,16,23,18.70
2007,09,19,16,24,18.70
2007,09,19,16,25,18.80
2007,09,19,16,26,18.70
2007,09,19,16,27,18.70
2007,09,19,16,28,18.70
2007,09,19,16,29,18.80
2007,09,19,16,30,18.90
2007,09,19,16,31,18.90
2007,09,19,16,32,18.90
2007,09,19,16,33,18.90
2007,09,19,16,34,18.90
2007,09,19,16,35,18.90
2007,09,19,16,36,18.90
2007,09,19,16,37,18.90
2007,09,19,16,38,18.90
2007,09,19,16,39,19.00
2007,09,19,16,40,19.10
2007,09,19,16,41,19.10
2007,09,19,16,42,19.10
2007,09,19,16,43,19.10
2007,09,19,16,44,19.10
2007,09,19,16,45,19.10
2007,09,19,16,46,19.20
2007,09,19,16,47,19.20
2007,09,19,16,48,19.20
2007,09,19,16,49,19.20
2007,09,19,16,50,19.20
2007,09,19,16,51,19.20
2007,09,19,16,52,19.20
2007,09,19,16,53,19.20
2007,09,19,16,54,19.20
2007,09,19,16,55,19.10
2007,09,19,16,56,19.10
2007,09,19,16,57,19.10
2007,09,19,16,58,19.10
2007,09,19,16,59,19.10
2007,09,19,17,00,19.10
2007,09,19,17,01,19.00
2007,09,19,17,02,18.90
2007,09,19,17,03,18.90
2007,09,19,17,04,18.80
2007,09,19,17,05,18.70
2007,09,19,17,06,18.70
2007,09,19,17,07,18.60
2007,09,19,17,08,18.60
2007,09,19,17,09,18.50
2007,09,19,17,10,18.50
2007,09,19,17,11,18.40
2007,09,19,17,12,18.40
2007,09,19,17,13,18.30
2007,09,19,17,14,18.30
2007,09,19,17,15,18.30
2007,09,19,17,16,18.30
2007,09,19,17,17,18.20
2007,09,19,17,18,18.30
2007,09,19,17,19,18.30
2007,09,19,17,20,18.30
2007,09,19,17,21,18.30
2007,09,19,17,22,18.40
2007,09,19,17,23,18.40
2007,09,19,17,24,18.40
2007,09,19,17,25,18.30
2007,09,19,17,26,18.30
2007,09,19,17,27,18.30
2007,09,19,17,28,18.30
2007,09,19,17,29,18.20
2007,09,19,17,30,18.20
2007,09,19,17,31,18.20
2007,09,19,17,32,18.20
2007,09,19,17,33,18.20
2007,09,19,17,34,18.10
2007,09,19,17,35,18.10
2007,09,19,17,36,18.10
2007,09,19,17,37,18.10
2007,09,19,17,38,18.10
2007,09,19,17,39,18.10
2007,09,19,17,40,18.10